Regional Weather Roundup
Issued by NWS

Home | Current Version | Previous Version | Text Only | Print | Product List | Glossary On
Versions: 1 2 3 4 5 6 7 8 9 10 11 12 13 14 15 16 17 18 19 20 21 22 23 24 25 26 27 28 29 30 31 32 33 34 35 36 37 38 39 40 41 42 43 44 45 46 47 48 49 50
466
ASUS42 KKEY 200710
RWRKEY

FLORIDA REGIONAL WEATHER ROUNDUP FOR THE FLORIDA KEYS
NATIONAL WEATHER SERVICE KEY WEST FLORIDA
300 AM EDT FRI APR 20 2018

...SOUTH FLORIDA AND THE KEYS...

CITY           SKY/WX    TMP DP  RH WIND       PRES   REMARKS
FORT MYERS     FAIR      69  66  90 N3        30.07F
SW REGIONAL AP FAIR      66  66 100 CALM      30.08S
NAPLES         FAIR      69  68  96 CALM      30.07F
MIAMI          FAIR      71  66  84 SW3       30.07F
WEST KENDALL   FAIR      68  64  87 SW3       30.07F
HOMESTEAD      FAIR      66  65  96 CALM      30.06F
MARATHON       FAIR      71  64  78 CALM      30.07F
KEY WEST INTL  FAIR      72  66  81 CALM      30.08F

...INTERNATIONAL WEATHER...

CITY           SKY/WX    TMP DP  RH WIND       PRES   REMARKS
NASSAU BAHAMAS PTCLDY    79  72  78 SE5       30.07F
CANCUN MEXICO  PTCLDY    73  64  73 NE5       30.07F
COZUMEL MEXICO CLEAR     72  64  78 CALM      30.05F

ADJACENT COASTAL WATERS...

STATION/POSITION TIME  SKY/WX   TEMP    WIND        PRES    WAVE
                                AIR SEA DIR/SP/G            HT/PER
                 (UTC)          (F)     (DEG/KT/KT) (MB)    (FT/S)
PULASKI SHOAL LI 0700            74      90/  2/  3 1018.5F
SAND KEY         0650            74                 1018.4F
SOMBRERO KEY     0650            75      70/  4/  7 1017.8F
LONG KEY         0700            75 78  120/  2/  2 1018.3F
MOLASSES REEF    0700            75 78   CALM  /  1 1018.7F
FOWEY ROCKS      0700            75 77  240/  6/  7 1018.7F
Buoy 42078       0630               78                N/A     1
Buoy 42097       0630               77                N/A     1/ 5

$$




USA.gov is the U.S. government's official web portal to all federal, state and local government web resources and services.